EW6077 Weather Reports


time (UTC)temp
C
wind
direction
speed
KPH
gust
KPH
rain 1hr
cm
rain 24hr
cm
rain mn
cm
humidity
%
barometer
mb
20260906211552 23 68 24.1 0.0 0.00 0.00 0.00 76 1009.0
20260906210055 23 63 17.7 0.0 0.00 0.00 0.00 77 1008.8
20260906204602 23 35 16.1 0.0 0.00 0.00 0.00 78 1008.9
20260906203051 22 360 16.1 0.0 0.00 0.00 0.00 79 1008.9
20260906201604 25 55 14.5 0.0 0.00 0.00 0.00 74 1008.7
20260906200049 25 53 11.3 0.0 0.00 0.00 0.00 75 1008.5
20260906194547 27 355 9.7 0.0 0.00 0.00 0.00 71 1008.3
20260906193047 28 91 11.3 0.0 0.00 0.00 0.00 70 1008.2
20260906191545 27 69 12.9 0.0 0.00 0.00 0.00 69 1008.1
20260906190044 28 112 12.9 0.0 0.00 0.00 0.00 71 1007.9
20260906184545 27 85 14.5 0.0 0.00 0.00 0.00 73 1007.8
20260906183039 27 101 19.3 0.0 0.00 0.00 0.00 73 1008.1
20260906181537 27 86 17.7 0.0 0.00 0.00 0.00 75 1008.0
20260906180054 26 134 16.1 0.0 0.00 0.00 0.00 75 1008.3
20260906174535 26 135 16.1 0.0 0.00 0.00 0.00 74 1008.7
20260906173027 25 88 14.5 0.0 0.00 0.00 0.00 76 1009.2
20260906171525 26 102 14.5 0.0 0.00 0.00 0.00 73 1009.2
20260906170021 25 88 16.1 0.0 0.00 0.00 0.00 75 1009.6
20260906164519 25 113 17.7 0.0 0.00 0.00 0.00 75 1009.8
20260906163015 24 86 19.3 0.0 0.00 0.00 0.00 78 1009.6
20260906161517 23 77 22.5 0.0 0.00 0.00 0.00 78 1009.5
20260906160009 23 85 16.1 0.0 0.00 0.00 0.00 81 1009.8
20260906154513 23 86 14.5 0.0 0.00 0.00 0.00 79 1010.1
20260906153007 23 83 16.1 0.0 0.00 0.00 0.00 79 1009.9
20260906151503 23 77 17.7 0.0 0.00 0.00 0.00 80 1010.2
20260906150059 22 82 17.7 0.0 0.00 0.00 0.00 80 1010.3
20260906144555 22 69 17.7 0.0 0.00 0.00 0.00 81 1010.5
20260906143151 21 88 17.7 0.0 0.00 0.00 0.00 82 1010.9
20260906141546 21 80 16.1 0.0 0.00 0.00 0.00 84 1010.7
20260906140042 20 55 14.5 0.0 0.00 0.00 0.00 86 1010.8
20260906134539 20 74 14.5 0.0 0.00 0.00 0.00 88 1010.7
20260906133036 19 72 11.3 0.0 0.00 0.00 0.00 90 1010.9
20260906131541 18 74 12.9 0.0 0.00 0.00 0.00 90 1010.9
20260906130034 18 84 12.9 0.0 0.00 0.00 0.00 90 1010.8
20260906124527 18 76 9.7 0.0 0.00 0.00 0.00 91 1010.9
20260906123023 18 71 9.7 0.0 0.00 0.00 0.00 90 1010.7
20260906121524 18 72 8.0 0.0 0.00 0.00 0.00 90 1011.0
20260906120021 18 82 8.0 0.0 0.00 0.00 0.00 90 1010.8
20260906114520 18 51 6.4 0.0 0.00 0.00 0.00 90 1010.8
20260906113022 18 75 8.0 0.0 0.00 0.00 0.00 91 1011.0
20260906111519 18 60 8.0 0.0 0.00 0.00 0.00 91 1010.7
20260906110018 18 95 6.4 0.0 0.00 0.00 0.00 91 1010.7
20260906104532 18 92 4.8 0.0 0.00 0.00 0.00 91 1010.8
20260906103016 18 84 3.2 0.0 0.00 0.00 0.00 90 1010.9
20260906101516 18 84 3.2 0.0 0.00 0.00 0.00 90 1010.8
20260906100015 18 83 3.2 0.0 0.00 0.00 0.00 89 1010.6
20260906094532 18 82 4.8 0.0 0.00 0.00 0.00 89 1010.6
20260906093023 18 77 4.8 0.0 0.00 0.00 0.00 89 1010.5
20260906091513 18 83 1.6 0.0 0.00 0.00 0.00 89 1010.4
20260906090012 18 87 0.0 0.0 0.00 0.00 0.00 88 1010.5
20260906084511 18 87 0.0 0.0 0.00 0.00 0.00 88 1010.7
20260906083016 18 87 0.0 0.0 0.00 0.00 0.00 88 1010.7
20260906081510 18 87 0.0 0.0 0.00 0.00 0.00 88 1010.9
20260906080007 18 87 0.0 0.0 0.00 0.00 0.00 88 1011.1
20260906074507 18 87 4.8 0.0 0.00 0.00 0.00 88 1011.1
20260906073005 18 84 6.4 0.0 0.00 0.00 0.00 88 1011.1
20260906071504 18 83 6.4 0.0 0.00 0.00 0.00 88 1011.3
20260906070002 18 82 6.4 0.0 0.00 0.00 0.00 88 1011.3
20260906064503 18 87 4.8 0.0 0.00 0.00 0.00 88 1011.2
20260906063101 18 107 3.2 0.0 0.00 0.00 0.00 89 1011.2
20260906061601 18 107 3.2 0.0 0.00 0.00 0.00 88 1011.2
20260906060056 18 107 4.8 0.0 0.00 0.00 0.00 88 1011.0
20260906054556 17 106 3.2 0.0 0.00 0.00 0.43 89 1010.9
20260906053055 17 90 4.8 0.0 0.00 0.00 0.43 88 1010.9
20260906051605 18 90 4.8 0.0 0.00 0.00 0.43 88 1010.8
20260906050054 18 86 4.8 0.0 0.00 0.00 0.43 88 1010.6
20260906044554 18 82 4.8 0.0 0.00 0.00 0.43 86 1010.8
20260906043053 19 83 4.8 0.0 0.00 0.00 0.43 86 1010.8
20260906041555 20 85 4.8 0.0 0.00 0.00 0.43 86 1010.8
20260906040052 20 94 3.2 0.0 0.00 0.00 0.43 85 1010.7
20260906034554 20 94 4.8 0.0 0.00 0.00 0.43 84 1010.8
20260906033052 21 94 6.4 0.0 0.00 0.00 0.43 83 1010.9
20260906031550 21 92 6.4 0.0 0.00 0.00 0.43 82 1011.0
20260906030053 21 90 4.8 0.0 0.00 0.00 0.43 82 1011.0
20260906024602 21 78 6.4 0.0 0.00 0.00 0.43 82 1010.9
20260906023050 21 92 6.4 0.0 0.00 0.00 0.43 83 1010.6
20260906021549 21 86 4.8 0.0 0.00 0.00 0.43 83 1010.6
20260906020050 22 85 4.8 0.0 0.00 0.00 0.43 83 1010.6
20260906014601 22 84 6.4 0.0 0.00 0.00 0.43 81 1010.3
20260906013048 23 92 6.4 0.0 0.00 0.00 0.43 81 1010.2
20260906011547 23 97 3.2 0.0 0.00 0.00 0.43 81 1010.1
20260906010047 23 96 0.0 0.0 0.00 0.00 0.43 79 1009.7
20260906004547 23 96 1.6 0.0 0.00 0.00 0.43 79 1009.4
20260906003102 23 96 4.8 0.0 0.00 0.00 0.43 79 1009.1
20260906001548 23 94 3.2 0.0 0.00 0.00 0.43 78 1009.0
20260906000046 24 94 3.2 0.0 0.00 0.00 0.43 76 1009.1
20260905234545 24 80 3.2 0.0 0.00 0.00 0.43 76 1009.1
20260905233045 25 91 9.7 0.0 0.00 0.00 0.43 74 1009.0
20260905231544 26 74 1.6 0.0 0.00 0.00 0.43 75 1009.0
20260905230044 26 232 0.0 0.0 0.00 0.00 0.43 72 1008.8
20260905224543 26 232 0.0 0.0 0.00 0.00 0.43 71 1008.6
20260905223042 27 232 1.6 0.0 0.00 0.00 0.43 69 1008.6
20260905221545 27 231 3.2 0.0 0.00 0.00 0.43 66 1008.6
20260905220045 27 200 4.8 0.0 0.00 0.00 0.43 64 1008.6
20260905214542 28 195 6.4 0.0 0.00 0.00 0.43 62 1008.6